Regional Weather Roundup
Issued by NWS Charleston, SC

Current Version | Previous Version | Text Only | Print | Product List | Glossary Off
Versions: 1 2 3 4 5 6 7 8 9 10 11 12 13 14 15 16 17 18 19 20 21 22 23 24 25 26 27 28 29 30 31 32 33 34 35 36 37 38 39 40 41 42 43 44 45 46 47 48 49 50

000
ASUS42 KCHS 020225
RWRCHS

REGIONAL WEATHER ROUNDUP
NATIONAL WEATHER SERVICE CHARLESTON SC
1000 PM EDT FRI AUG 01 2014

NOTE: "FAIR" INDICATES FEW OR NO CLOUDS BELOW 12,000 FEET WITH NO
SIGNIFICANT WEATHER AND/OR OBSTRUCTIONS TO VISIBILITY.

NOT ALL STATIONS ARE QUALITY CONTROLLED BY THE NATIONAL
WEATHER SERVICE. USE DATA WITH CAUTION...ESPECIALLY
DEWPOINT OBSERVATIONS.

SCZ027-030-031-034>040-042>050-020300-
...SOUTH CAROLINA...

CITY           SKY/WX    TMP DP  RH WIND       PRES   REMARKS
N CHARLESTON   PTCLDY    78  72  81 E3        30.03R
WATERFRONT PRK   N/A     79 N/A N/A E5          N/A
FORT JOHNSON   NOT AVBL
MOUNT PLEASANT FAIR      73  73 100 CALM      30.03R
JOHNS ISLAND   CLEAR     75  68  78 CALM      30.03S
PINOPOLIS        N/A     81  73  78 SE2       29.95R
MONCKS CORNER  NOT AVBL
SUMMERVILLE    MOCLDY    77  77 100 NE3       30.05R
BEAUFORT MCAS  CLOUDY    79  75  87 CALM      30.04R
BEAUFORT ARPT  FAIR      79  75  89 NW3       30.04R
HILTON HEAD IS CLOUDY    79  75  89 CALM      30.04R
GEORGETOWN     NOT AVBL
WALTERBORO     MOCLDY    77 N/A N/A CALM      30.06R
ORANGEBURG     LGT RAIN  74  71  91 NW5       30.04S
BARNWELL       CLOUDY    73  72  94 N5        30.06R
AIKEN          CLOUDY    70  70 100 N9        30.10S
MANNING        MOCLDY    73 N/A N/A NW5       30.04S
KINGSTREE      NOT AVBL
COLUMBIA       CLOUDY    74  68  81 N3        30.06R
SUMTER         CLOUDY    75  73  92 NW5       30.04R
FLORENCE       LGT RAIN  74  71  91 NE10      30.05R
MYRTLE BEACH   PTCLDY    77  72  83 S5        30.05R
N MYRTLE BEACH CLOUDY    79  72  79 S5        30.05R

$$

GAZ063-065-086>088-099>101-113>116-118-119-134-136>141-150-020300-
...GEORGIA...

CITY           SKY/WX    TMP DP  RH WIND       PRES   REMARKS
SAVANNAH ARPT  CLOUDY    78  75  90 N6        30.03R
HUNTER AAF     CLOUDY    79  76  90 N7        29.99R
FORT STEWART   CLOUDY    77  76  96 N2        30.00S
STATESBORO     NOT AVBL
SYLVANIA       CLOUDY    75  75 100 NE5       30.04S FOG
CLAXTON        FAIR     N/A N/A N/A CALM      30.02S
THOMSON        CLOUDY    71  70  96 N5        30.12R
AUGUSTA-BUSH   CLOUDY    71  66  84 N8        30.06R
AUGUSTA-DANIEL CLOUDY    71  66  84 N8        30.07R
SWAINSBORO     LGT RAIN  77  77 100 NE7       30.04S
VIDALIA          N/A     77  73  88 NE5       30.02R
ALMA           MOCLDY    74  73  97 CALM      30.00R FOG
WAYCROSS       PTCLDY    79  77  92 E7        29.99S
JESUP          HVY RAIN  79  77  94 CALM      30.02R
BRUNSWICK      CLOUDY    77  73  88 CALM      30.00S
SAINT SIMONS   CLOUDY    84  74  71 SE9       29.99R HX  91

$$

SCZ027-028-034-036>038-045-046-048>050-GAZ119-141-020300-
...LAKE AND SUPPLEMENTAL COASTAL OBSERVATIONS...

STATION/POSITION TIME  TEMP    WIND        PRES    WAVE   SWELL
                       AIR SEA DIR/SP/G            HT/PER HT/PER/DIR
                 (UTC) (F)     (DEG/KT/KT) (MB)    (FT/S) (FT/S/D)
UPR LAKE MARION  NOT AVBL
WINYAH BAY       0200   76     320/  2     1017.0S
LAKE MURRAY      0200   70     330/  2/  5 1017.9R
ACE BASIN NERRS  0200   76        CALM     1016.0S
FORT PULASKI     0200   80     350/  8/ 10 1016.4F
SAPELO ISLAND    0200   81     140/  5     1016.0S

$$

ANZ835-935-AMZ111-154-330-350-352-354-374-450-454-472-020300-
...C-MAN AND BUOY OBSERVATIONS...

STATION/POSITION TIME  TEMP    WIND        PRES    WAVE   SWELL
                       AIR SEA DIR/SP/G            HT/PER HT/PER/DIR
                 (UTC) (F)     (DEG/KT/KT) (MB)    (FT/S) (FT/S/D)
FOLLY BEACH CMAN 0200   79      CALM  /  2 1017.3R
BUOY 41004       0200   82 82  180/ 12/ 16 1015.7R   4/ 5   2/ 7
BUOY 41008       0200   83 85  140/ 14/ 16 1015.3R   4/ 6   2/100/ 7
5E ST. MARYS GA  0200      86                N/A     3/ 3
FRYING PAN BUOY  NOT AVBL
BUOY 41025       0200          VRB 16/ 17  1018.7F   4/ 6   2/ 90/ 9
CAPE LOOKOUT NC  0200   79     170/ 11/ 12 1018.1R
BUOY 41002       0058   81 81  150/ 12/ 14 1019.7    4/ 7   3/110/ 7
BUOY 41010       0200   83 85  110/ 14/ 16 1016.3S   2/ 7   2/ 90/ 7
BUOY 41012       NOT AVBL
ST AUGUSTINE FL  0200   82     170/ 15/ 16 1015.7R
CAPERS NEARSHORE 0100   79     200/  4/  6   N/A
FRIPP NEARSHORE  NOT AVBL


$$



USA.gov is the U.S. government's official web portal to all federal, state and local government web resources and services.